segment_id,date_local,uptime,ped_lft,ped_rgt,ped_total,bike_lft,bike_rgt,bike_total,car_lft,car_rgt,car_total,heavy_lft,heavy_rgt,heavy_total,v85,car_speed0,car_speed10,car_speed20,car_speed30,car_speed40,car_speed50,car_speed60,car_speed70
100024661,2021-09-01 00:00,1.0,,,,65,48,113,,,,,,,
100024661,2021-09-01 01:00,1.0,,,,32,23,55,,,,,,,
100024661,2021-09-01 02:00,1.0,,,,11,11,22,,,,,,,
100024661,2021-09-01 03:00,1.0,,,,3,5,8,,,,,,,
100024661,2021-09-01 04:00,1.0,,,,11,9,20,,,,,,,
100024661,2021-09-01 05:00,1.0,,,,23,43,66,,,,,,,
100024661,2021-09-01 06:00,1.0,,,,68,98,166,,,,,,,
100024661,2021-09-01 07:00,1.0,,,,207,351,558,,,,,,,
100024661,2021-09-01 08:00,1.0,,,,450,770,1220,,,,,,,
100024661,2021-09-01 09:00,1.0,,,,441,593,1034,,,,,,,
100024661,2021-09-01 10:00,1.0,,,,260,276,536,,,,,,,
100024661,2021-09-01 11:00,1.0,,,,221,193,414,,,,,,,
100024661,2021-09-01 12:00,1.0,,,,241,261,502,,,,,,,
100024661,2021-09-01 13:00,1.0,,,,241,287,528,,,,,,,
100024661,2021-09-01 14:00,1.0,,,,323,256,579,,,,,,,
100024661,2021-09-01 15:00,1.0,,,,391,317,708,,,,,,,
100024661,2021-09-01 16:00,1.0,,,,460,389,849,,,,,,,
100024661,2021-09-01 17:00,1.0,,,,573,501,1074,,,,,,,
100024661,2021-09-01 18:00,1.0,,,,741,539,1280,,,,,,,
100024661,2021-09-01 19:00,1.0,,,,556,455,1011,,,,,,,
100024661,2021-09-01 20:00,1.0,,,,297,294,591,,,,,,,
100024661,2021-09-01 21:00,1.0,,,,196,210,406,,,,,,,
100024661,2021-09-01 22:00,1.0,,,,184,182,366,,,,,,,
100024661,2021-09-01 23:00,1.0,,,,136,135,271,,,,,,,
100024661,2021-09-02 00:00,1.0,,,,56,56,112,,,,,,,
100024661,2021-09-02 01:00,1.0,,,,23,36,59,,,,,,,
100024661,2021-09-02 02:00,1.0,,,,11,10,21,,,,,,,
100024661,2021-09-02 03:00,1.0,,,,1,4,5,,,,,,,
100024661,2021-09-02 04:00,1.0,,,,7,13,20,,,,,,,
100024661,2021-09-02 05:00,1.0,,,,14,51,65,,,,,,,
100024661,2021-09-02 06:00,1.0,,,,68,111,179,,,,,,,
100024661,2021-09-02 07:00,1.0,,,,229,389,618,,,,,,,
100024661,2021-09-02 08:00,1.0,,,,511,805,1316,,,,,,,
100024661,2021-09-02 09:00,1.0,,,,419,591,1010,,,,,,,
100024661,2021-09-02 10:00,1.0,,,,268,301,569,,,,,,,
100024661,2021-09-02 11:00,1.0,,,,259,275,534,,,,,,,
100024661,2021-09-02 12:00,1.0,,,,283,278,561,,,,,,,
100024661,2021-09-02 13:00,1.0,,,,307,308,615,,,,,,,
100024661,2021-09-02 14:00,1.0,,,,380,291,671,,,,,,,
100024661,2021-09-02 15:00,1.0,,,,496,383,879,,,,,,,
100024661,2021-09-02 16:00,1.0,,,,550,391,941,,,,,,,
100024661,2021-09-02 17:00,1.0,,,,622,501,1123,,,,,,,
100024661,2021-09-02 18:00,1.0,,,,712,655,1367,,,,,,,
100024661,2021-09-02 19:00,1.0,,,,539,481,1020,,,,,,,
100024661,2021-09-02 20:00,1.0,,,,316,301,617,,,,,,,
100024661,2021-09-02 21:00,1.0,,,,248,203,451,,,,,,,
100024661,2021-09-02 22:00,1.0,,,,228,198,426,,,,,,,
100024661,2021-09-02 23:00,1.0,,,,153,139,292,,,,,,,
100024661,2021-09-03 00:00,1.0,,,,72,72,144,,,,,,,
100024661,2021-09-03 01:00,1.0,,,,43,28,71,,,,,,,
100024661,2021-09-03 02:00,1.0,,,,23,20,43,,,,,,,
100024661,2021-09-03 03:00,1.0,,,,10,6,16,,,,,,,
100024661,2021-09-03 04:00,1.0,,,,7,17,24,,,,,,,
100024661,2021-09-03 05:00,1.0,,,,15,36,51,,,,,,,
100024661,2021-09-03 06:00,1.0,,,,62,92,154,,,,,,,
100024661,2021-09-03 07:00,1.0,,,,184,322,506,,,,,,,
100024661,2021-09-03 08:00,1.0,,,,386,583,969,,,,,,,
100024661,2021-09-03 09:00,1.0,,,,328,469,797,,,,,,,
100024661,2021-09-03 10:00,1.0,,,,233,281,514,,,,,,,
100024661,2021-09-03 11:00,1.0,,,,241,253,494,,,,,,,
100024661,2021-09-03 12:00,1.0,,,,284,293,577,,,,,,,
100024661,2021-09-03 13:00,1.0,,,,324,315,639,,,,,,,
100024661,2021-09-03 14:00,1.0,,,,443,356,799,,,,,,,
100024661,2021-09-03 15:00,1.0,,,,464,391,855,,,,,,,
100024661,2021-09-03 16:00,1.0,,,,448,467,915,,,,,,,
100024661,2021-09-03 17:00,1.0,,,,503,527,1030,,,,,,,
100024661,2021-09-03 18:00,1.0,,,,569,566,1135,,,,,,,
100024661,2021-09-03 19:00,1.0,,,,449,460,909,,,,,,,
100024661,2021-09-03 20:00,1.0,,,,303,288,591,,,,,,,
100024661,2021-09-03 21:00,1.0,,,,246,206,452,,,,,,,
100024661,2021-09-03 22:00,1.0,,,,175,205,380,,,,,,,
100024661,2021-09-03 23:00,1.0,,,,201,176,377,,,,,,,
100024661,2021-09-04 00:00,1.0,,,,144,133,277,,,,,,,
100024661,2021-09-04 01:00,1.0,,,,88,108,196,,,,,,,
100024661,2021-09-04 02:00,1.0,,,,68,64,132,,,,,,,
100024661,2021-09-04 03:00,1.0,,,,36,36,72,,,,,,,
100024661,2021-09-04 04:00,1.0,,,,20,16,36,,,,,,,
100024661,2021-09-04 05:00,1.0,,,,17,20,37,,,,,,,
100024661,2021-09-04 06:00,1.0,,,,32,30,62,,,,,,,
100024661,2021-09-04 07:00,1.0,,,,33,38,71,,,,,,,
100024661,2021-09-04 08:00,1.0,,,,95,76,171,,,,,,,
100024661,2021-09-04 09:00,1.0,,,,121,132,253,,,,,,,
100024661,2021-09-04 10:00,1.0,,,,181,183,364,,,,,,,
100024661,2021-09-04 11:00,1.0,,,,230,223,453,,,,,,,
100024661,2021-09-04 12:00,1.0,,,,243,255,498,,,,,,,
100024661,2021-09-04 13:00,1.0,,,,285,265,550,,,,,,,
100024661,2021-09-04 14:00,1.0,,,,266,286,552,,,,,,,
100024661,2021-09-04 15:00,1.0,,,,358,412,770,,,,,,,
100024661,2021-09-04 16:00,1.0,,,,330,448,778,,,,,,,
100024661,2021-09-04 17:00,1.0,,,,339,455,794,,,,,,,
100024661,2021-09-04 18:00,1.0,,,,325,373,698,,,,,,,
100024661,2021-09-04 19:00,1.0,,,,314,322,636,,,,,,,
100024661,2021-09-04 20:00,1.0,,,,232,237,469,,,,,,,
100024661,2021-09-04 21:00,1.0,,,,183,187,370,,,,,,,
100024661,2021-09-04 22:00,1.0,,,,160,151,311,,,,,,,
100024661,2021-09-04 23:00,1.0,,,,141,127,268,,,,,,,
100024661,2021-09-05 00:00,1.0,,,,92,97,189,,,,,,,
100024661,2021-09-05 01:00,1.0,,,,94,65,159,,,,,,,
100024661,2021-09-05 02:00,1.0,,,,48,43,91,,,,,,,
100024661,2021-09-05 03:00,1.0,,,,36,33,69,,,,,,,
100024661,2021-09-05 04:00,1.0,,,,22,14,36,,,,,,,
100024661,2021-09-05 05:00,1.0,,,,25,26,51,,,,,,,
100024661,2021-09-05 06:00,1.0,,,,25,29,54,,,,,,,
100024661,2021-09-05 07:00,1.0,,,,16,27,43,,,,,,,
100024661,2021-09-05 08:00,1.0,,,,45,43,88,,,,,,,
100024661,2021-09-05 09:00,1.0,,,,76,95,171,,,,,,,
100024661,2021-09-05 10:00,1.0,,,,107,131,238,,,,,,,
100024661,2021-09-05 11:00,1.0,,,,144,180,324,,,,,,,
100024661,2021-09-05 12:00,1.0,,,,168,227,395,,,,,,,
100024661,2021-09-05 13:00,1.0,,,,251,238,489,,,,,,,
100024661,2021-09-05 14:00,1.0,,,,201,260,461,,,,,,,
100024661,2021-09-05 15:00,1.0,,,,203,272,475,,,,,,,
100024661,2021-09-05 16:00,1.0,,,,206,260,466,,,,,,,
100024661,2021-09-05 17:00,1.0,,,,190,241,431,,,,,,,
100024661,2021-09-05 18:00,1.0,,,,241,214,455,,,,,,,
100024661,2021-09-05 19:00,1.0,,,,293,218,511,,,,,,,
100024661,2021-09-05 20:00,1.0,,,,197,175,372,,,,,,,
100024661,2021-09-05 21:00,1.0,,,,129,121,250,,,,,,,
100024661,2021-09-05 22:00,1.0,,,,100,112,212,,,,,,,
100024661,2021-09-05 23:00,1.0,,,,70,85,155,,,,,,,
100024661,2021-09-06 00:00,1.0,,,,23,34,57,,,,,,,
100024661,2021-09-06 01:00,1.0,,,,21,11,32,,,,,,,
100024661,2021-09-06 02:00,1.0,,,,3,5,8,,,,,,,
100024661,2021-09-06 03:00,1.0,,,,9,5,14,,,,,,,
100024661,2021-09-06 04:00,1.0,,,,5,19,24,,,,,,,
100024661,2021-09-06 05:00,1.0,,,,28,48,76,,,,,,,
100024661,2021-09-06 06:00,1.0,,,,67,124,191,,,,,,,
100024661,2021-09-06 07:00,1.0,,,,211,380,591,,,,,,,
100024661,2021-09-06 08:00,1.0,,,,429,765,1194,,,,,,,
100024661,2021-09-06 09:00,1.0,,,,423,536,959,,,,,,,
100024661,2021-09-06 10:00,1.0,,,,221,268,489,,,,,,,
100024661,2021-09-06 11:00,1.0,,,,231,248,479,,,,,,,
100024661,2021-09-06 12:00,1.0,,,,289,253,542,,,,,,,
100024661,2021-09-06 13:00,1.0,,,,116,293,409,,,,,,,
100024661,2021-09-06 14:00,1.0,,,,309,294,603,,,,,,,
100024661,2021-09-06 15:00,1.0,,,,498,365,863,,,,,,,
100024661,2021-09-06 16:00,1.0,,,,517,405,922,,,,,,,
100024661,2021-09-06 17:00,1.0,,,,658,489,1147,,,,,,,
100024661,2021-09-06 18:00,1.0,,,,736,574,1310,,,,,,,
100024661,2021-09-06 19:00,1.0,,,,517,464,981,,,,,,,
100024661,2021-09-06 20:00,1.0,,,,330,266,596,,,,,,,
100024661,2021-09-06 21:00,1.0,,,,245,184,429,,,,,,,
100024661,2021-09-06 22:00,1.0,,,,193,136,329,,,,,,,
100024661,2021-09-06 23:00,1.0,,,,107,107,214,,,,,,,
100024661,2021-09-07 00:00,1.0,,,,36,75,111,,,,,,,
100024661,2021-09-07 01:00,1.0,,,,15,16,31,,,,,,,
100024661,2021-09-07 02:00,1.0,,,,11,11,22,,,,,,,
100024661,2021-09-07 03:00,1.0,,,,11,8,19,,,,,,,
100024661,2021-09-07 04:00,1.0,,,,9,13,22,,,,,,,
100024661,2021-09-07 05:00,1.0,,,,28,42,70,,,,,,,
100024661,2021-09-07 06:00,1.0,,,,71,140,211,,,,,,,
100024661,2021-09-07 07:00,1.0,,,,218,372,590,,,,,,,
100024661,2021-09-07 08:00,1.0,,,,491,830,1321,,,,,,,
100024661,2021-09-07 09:00,1.0,,,,447,614,1061,,,,,,,
100024661,2021-09-07 10:00,1.0,,,,277,294,571,,,,,,,
100024661,2021-09-07 11:00,1.0,,,,288,244,532,,,,,,,
100024661,2021-09-07 12:00,1.0,,,,259,251,510,,,,,,,
100024661,2021-09-07 13:00,1.0,,,,309,334,643,,,,,,,
100024661,2021-09-07 14:00,1.0,,,,382,317,699,,,,,,,
100024661,2021-09-07 15:00,1.0,,,,445,418,863,,,,,,,
100024661,2021-09-07 16:00,1.0,,,,527,422,949,,,,,,,
100024661,2021-09-07 17:00,1.0,,,,684,533,1217,,,,,,,
100024661,2021-09-07 18:00,1.0,,,,802,648,1450,,,,,,,
100024661,2021-09-07 19:00,1.0,,,,563,484,1047,,,,,,,
100024661,2021-09-07 20:00,1.0,,,,361,310,671,,,,,,,
100024661,2021-09-07 21:00,1.0,,,,271,186,457,,,,,,,
100024661,2021-09-07 22:00,1.0,,,,225,201,426,,,,,,,
100024661,2021-09-07 23:00,1.0,,,,131,143,274,,,,,,,
100024661,2021-09-08 00:00,1.0,,,,58,64,122,,,,,,,
100024661,2021-09-08 01:00,1.0,,,,28,18,46,,,,,,,
100024661,2021-09-08 02:00,1.0,,,,12,7,19,,,,,,,
100024661,2021-09-08 03:00,1.0,,,,13,9,22,,,,,,,
100024661,2021-09-08 04:00,1.0,,,,8,12,20,,,,,,,
100024661,2021-09-08 05:00,1.0,,,,23,38,61,,,,,,,
100024661,2021-09-08 06:00,1.0,,,,75,120,195,,,,,,,
100024661,2021-09-08 07:00,1.0,,,,222,378,600,,,,,,,
100024661,2021-09-08 08:00,1.0,,,,501,838,1339,,,,,,,
100024661,2021-09-08 09:00,1.0,,,,437,576,1013,,,,,,,
100024661,2021-09-08 10:00,1.0,,,,263,311,574,,,,,,,
100024661,2021-09-08 11:00,1.0,,,,241,267,508,,,,,,,
100024661,2021-09-08 12:00,1.0,,,,279,287,566,,,,,,,
100024661,2021-09-08 13:00,1.0,,,,319,320,639,,,,,,,
100024661,2021-09-08 14:00,1.0,,,,385,351,736,,,,,,,
100024661,2021-09-08 15:00,1.0,,,,462,426,888,,,,,,,
100024661,2021-09-08 16:00,1.0,,,,525,441,966,,,,,,,
100024661,2021-09-08 17:00,1.0,,,,675,528,1203,,,,,,,
100024661,2021-09-08 18:00,1.0,,,,866,692,1558,,,,,,,
100024661,2021-09-08 19:00,1.0,,,,579,483,1062,,,,,,,
100024661,2021-09-08 20:00,1.0,,,,344,306,650,,,,,,,
100024661,2021-09-08 21:00,1.0,,,,271,233,504,,,,,,,
100024661,2021-09-08 22:00,1.0,,,,266,231,497,,,,,,,
100024661,2021-09-08 23:00,1.0,,,,158,184,342,,,,,,,
100024661,2021-09-09 00:00,1.0,,,,83,89,172,,,,,,,
100024661,2021-09-09 01:00,1.0,,,,34,30,64,,,,,,,
100024661,2021-09-09 02:00,1.0,,,,23,24,47,,,,,,,
100024661,2021-09-09 03:00,1.0,,,,16,19,35,,,,,,,
100024661,2021-09-09 04:00,1.0,,,,14,10,24,,,,,,,
100024661,2021-09-09 05:00,1.0,,,,19,45,64,,,,,,,
100024661,2021-09-09 06:00,1.0,,,,63,114,177,,,,,,,
100024661,2021-09-09 07:00,1.0,,,,213,362,575,,,,,,,
100024661,2021-09-09 08:00,1.0,,,,472,799,1271,,,,,,,
100024661,2021-09-09 09:00,1.0,,,,426,600,1026,,,,,,,
100024661,2021-09-09 10:00,1.0,,,,286,286,572,,,,,,,
100024661,2021-09-09 11:00,1.0,,,,268,265,533,,,,,,,
100024661,2021-09-09 12:00,1.0,,,,279,281,560,,,,,,,
100024661,2021-09-09 13:00,1.0,,,,330,319,649,,,,,,,
100024661,2021-09-09 14:00,1.0,,,,412,315,727,,,,,,,
100024661,2021-09-09 15:00,1.0,,,,456,393,849,,,,,,,
100024661,2021-09-09 16:00,1.0,,,,543,441,984,,,,,,,
100024661,2021-09-09 17:00,1.0,,,,630,536,1166,,,,,,,
100024661,2021-09-09 18:00,1.0,,,,766,602,1368,,,,,,,
100024661,2021-09-09 19:00,1.0,,,,564,506,1070,,,,,,,
100024661,2021-09-09 20:00,1.0,,,,386,288,674,,,,,,,
100024661,2021-09-09 21:00,1.0,,,,269,228,497,,,,,,,
100024661,2021-09-09 22:00,1.0,,,,279,223,502,,,,,,,
100024661,2021-09-09 23:00,1.0,,,,189,199,388,,,,,,,
100024661,2021-09-10 00:00,1.0,,,,97,111,208,,,,,,,
100024661,2021-09-10 01:00,1.0,,,,49,48,97,,,,,,,
100024661,2021-09-10 02:00,1.0,,,,27,24,51,,,,,,,
100024661,2021-09-10 03:00,1.0,,,,23,11,34,,,,,,,
100024661,2021-09-10 04:00,1.0,,,,11,15,26,,,,,,,
100024661,2021-09-10 05:00,1.0,,,,15,33,48,,,,,,,
100024661,2021-09-10 06:00,1.0,,,,54,92,146,,,,,,,
100024661,2021-09-10 07:00,1.0,,,,183,253,436,,,,,,,
100024661,2021-09-10 08:00,1.0,,,,330,592,922,,,,,,,
100024661,2021-09-10 09:00,1.0,,,,359,438,797,,,,,,,
100024661,2021-09-10 10:00,1.0,,,,242,274,516,,,,,,,
100024661,2021-09-10 11:00,1.0,,,,259,245,504,,,,,,,
100024661,2021-09-10 12:00,1.0,,,,263,269,532,,,,,,,
100024661,2021-09-10 13:00,1.0,,,,351,354,705,,,,,,,
100024661,2021-09-10 14:00,1.0,,,,414,322,736,,,,,,,
100024661,2021-09-10 15:00,1.0,,,,391,328,719,,,,,,,
100024661,2021-09-10 16:00,1.0,,,,300,223,523,,,,,,,
100024661,2021-09-10 17:00,1.0,,,,403,326,729,,,,,,,
100024661,2021-09-10 18:00,1.0,,,,447,384,831,,,,,,,
100024661,2021-09-10 19:00,1.0,,,,386,325,711,,,,,,,
100024661,2021-09-10 20:00,1.0,,,,260,232,492,,,,,,,
100024661,2021-09-10 21:00,1.0,,,,192,210,402,,,,,,,
100024661,2021-09-10 22:00,1.0,,,,155,179,334,,,,,,,
100024661,2021-09-10 23:00,1.0,,,,152,149,301,,,,,,,
100024661,2021-09-11 00:00,1.0,,,,111,101,212,,,,,,,
100024661,2021-09-11 01:00,1.0,,,,71,70,141,,,,,,,
100024661,2021-09-11 02:00,1.0,,,,72,46,118,,,,,,,
100024661,2021-09-11 03:00,1.0,,,,55,27,82,,,,,,,
100024661,2021-09-11 04:00,1.0,,,,37,17,54,,,,,,,
100024661,2021-09-11 05:00,1.0,,,,26,19,45,,,,,,,
100024661,2021-09-11 06:00,1.0,,,,28,24,52,,,,,,,
100024661,2021-09-11 07:00,1.0,,,,36,38,74,,,,,,,
100024661,2021-09-11 08:00,1.0,,,,68,51,119,,,,,,,
100024661,2021-09-11 09:00,1.0,,,,128,105,233,,,,,,,
100024661,2021-09-11 10:00,1.0,,,,137,125,262,,,,,,,
100024661,2021-09-11 11:00,1.0,,,,128,169,297,,,,,,,
100024661,2021-09-11 12:00,1.0,,,,285,217,502,,,,,,,
100024661,2021-09-11 13:00,1.0,,,,506,251,757,,,,,,,
100024661,2021-09-11 14:00,1.0,,,,334,299,633,,,,,,,
100024661,2021-09-11 15:00,1.0,,,,294,309,603,,,,,,,
100024661,2021-09-11 16:00,1.0,,,,210,264,474,,,,,,,
100024661,2021-09-11 17:00,1.0,,,,317,329,646,,,,,,,
100024661,2021-09-11 18:00,1.0,,,,270,365,635,,,,,,,
100024661,2021-09-11 19:00,1.0,,,,261,265,526,,,,,,,
100024661,2021-09-11 20:00,1.0,,,,217,215,432,,,,,,,
100024661,2021-09-11 21:00,1.0,,,,170,169,339,,,,,,,
100024661,2021-09-11 22:00,1.0,,,,155,166,321,,,,,,,
100024661,2021-09-11 23:00,1.0,,,,157,136,293,,,,,,,
100024661,2021-09-12 00:00,1.0,,,,104,91,195,,,,,,,
100024661,2021-09-12 01:00,1.0,,,,69,79,148,,,,,,,
100024661,2021-09-12 02:00,1.0,,,,58,49,107,,,,,,,
100024661,2021-09-12 03:00,1.0,,,,36,36,72,,,,,,,
100024661,2021-09-12 04:00,1.0,,,,32,22,54,,,,,,,
100024661,2021-09-12 05:00,1.0,,,,26,16,42,,,,,,,
100024661,2021-09-12 06:00,1.0,,,,25,22,47,,,,,,,
100024661,2021-09-12 07:00,1.0,,,,24,26,50,,,,,,,
100024661,2021-09-12 08:00,1.0,,,,44,44,88,,,,,,,
100024661,2021-09-12 09:00,1.0,,,,95,59,154,,,,,,,
100024661,2021-09-12 10:00,1.0,,,,108,106,214,,,,,,,
100024661,2021-09-12 11:00,1.0,,,,149,142,291,,,,,,,
100024661,2021-09-12 12:00,1.0,,,,189,169,358,,,,,,,
100024661,2021-09-12 13:00,1.0,,,,194,207,401,,,,,,,
100024661,2021-09-12 14:00,1.0,,,,223,222,445,,,,,,,
100024661,2021-09-12 15:00,1.0,,,,257,249,506,,,,,,,
100024661,2021-09-12 16:00,1.0,,,,237,261,498,,,,,,,
100024661,2021-09-12 17:00,1.0,,,,289,263,552,,,,,,,
100024661,2021-09-12 18:00,1.0,,,,236,252,488,,,,,,,
100024661,2021-09-12 19:00,1.0,,,,229,232,461,,,,,,,
100024661,2021-09-12 20:00,1.0,,,,166,143,309,,,,,,,
100024661,2021-09-12 21:00,1.0,,,,104,123,227,,,,,,,
100024661,2021-09-12 22:00,1.0,,,,101,111,212,,,,,,,
100024661,2021-09-12 23:00,1.0,,,,68,95,163,,,,,,,
100024661,2021-09-13 00:00,1.0,,,,32,55,87,,,,,,,
100024661,2021-09-13 01:00,1.0,,,,20,25,45,,,,,,,
100024661,2021-09-13 02:00,1.0,,,,9,11,20,,,,,,,
100024661,2021-09-13 03:00,1.0,,,,8,7,15,,,,,,,
100024661,2021-09-13 04:00,1.0,,,,10,11,21,,,,,,,
100024661,2021-09-13 05:00,1.0,,,,21,35,56,,,,,,,
100024661,2021-09-13 06:00,1.0,,,,53,119,172,,,,,,,
100024661,2021-09-13 07:00,1.0,,,,210,331,541,,,,,,,
100024661,2021-09-13 08:00,1.0,,,,430,734,1164,,,,,,,
100024661,2021-09-13 09:00,1.0,,,,391,540,931,,,,,,,
100024661,2021-09-13 10:00,1.0,,,,250,239,489,,,,,,,
100024661,2021-09-13 11:00,1.0,,,,233,231,464,,,,,,,
100024661,2021-09-13 12:00,1.0,,,,258,267,525,,,,,,,
100024661,2021-09-13 13:00,1.0,,,,276,252,528,,,,,,,
100024661,2021-09-13 14:00,1.0,,,,337,289,626,,,,,,,
100024661,2021-09-13 15:00,1.0,,,,437,318,755,,,,,,,
100024661,2021-09-13 16:00,1.0,,,,501,368,869,,,,,,,
100024661,2021-09-13 17:00,1.0,,,,555,435,990,,,,,,,
100024661,2021-09-13 18:00,1.0,,,,718,549,1267,,,,,,,
100024661,2021-09-13 19:00,1.0,,,,490,452,942,,,,,,,
100024661,2021-09-13 20:00,1.0,,,,268,281,549,,,,,,,
100024661,2021-09-13 21:00,1.0,,,,193,206,399,,,,,,,
100024661,2021-09-13 22:00,1.0,,,,153,127,280,,,,,,,
100024661,2021-09-13 23:00,1.0,,,,87,77,164,,,,,,,
100024661,2021-09-14 00:00,1.0,,,,37,33,70,,,,,,,
100024661,2021-09-14 01:00,1.0,,,,15,19,34,,,,,,,
100024661,2021-09-14 02:00,1.0,,,,9,8,17,,,,,,,
100024661,2021-09-14 03:00,1.0,,,,9,9,18,,,,,,,
100024661,2021-09-14 04:00,1.0,,,,11,8,19,,,,,,,
100024661,2021-09-14 05:00,1.0,,,,26,43,69,,,,,,,
100024661,2021-09-14 06:00,1.0,,,,71,122,193,,,,,,,
100024661,2021-09-14 07:00,1.0,,,,232,372,604,,,,,,,
100024661,2021-09-14 08:00,1.0,,,,493,847,1340,,,,,,,
100024661,2021-09-14 09:00,1.0,,,,490,610,1100,,,,,,,
100024661,2021-09-14 10:00,1.0,,,,251,288,539,,,,,,,
100024661,2021-09-14 11:00,1.0,,,,270,247,517,,,,,,,
100024661,2021-09-14 12:00,1.0,,,,274,263,537,,,,,,,
100024661,2021-09-14 13:00,1.0,,,,306,306,612,,,,,,,
100024661,2021-09-14 14:00,1.0,,,,352,325,677,,,,,,,
100024661,2021-09-14 15:00,1.0,,,,497,375,872,,,,,,,
100024661,2021-09-14 16:00,1.0,,,,561,404,965,,,,,,,
100024661,2021-09-14 17:00,1.0,,,,645,544,1189,,,,,,,
100024661,2021-09-14 18:00,1.0,,,,834,664,1498,,,,,,,
100024661,2021-09-14 19:00,1.0,,,,566,529,1095,,,,,,,
100024661,2021-09-14 20:00,1.0,,,,347,321,668,,,,,,,
100024661,2021-09-14 21:00,1.0,,,,245,247,492,,,,,,,
100024661,2021-09-14 22:00,1.0,,,,209,194,403,,,,,,,
100024661,2021-09-14 23:00,1.0,,,,145,139,284,,,,,,,
100024661,2021-09-15 00:00,1.0,,,,63,56,119,,,,,,,
100024661,2021-09-15 01:00,1.0,,,,38,18,56,,,,,,,
100024661,2021-09-15 02:00,1.0,,,,22,7,29,,,,,,,
100024661,2021-09-15 03:00,1.0,,,,10,6,16,,,,,,,
100024661,2021-09-15 04:00,1.0,,,,7,11,18,,,,,,,
100024661,2021-09-15 05:00,1.0,,,,24,37,61,,,,,,,
100024661,2021-09-15 06:00,1.0,,,,67,96,163,,,,,,,
100024661,2021-09-15 07:00,1.0,,,,181,331,512,,,,,,,
100024661,2021-09-15 08:00,1.0,,,,449,763,1212,,,,,,,
100024661,2021-09-15 09:00,1.0,,,,406,577,983,,,,,,,
100024661,2021-09-15 10:00,1.0,,,,264,311,575,,,,,,,
100024661,2021-09-15 11:00,1.0,,,,245,205,450,,,,,,,
100024661,2021-09-15 12:00,1.0,,,,237,282,519,,,,,,,
100024661,2021-09-15 13:00,1.0,,,,284,240,524,,,,,,,
100024661,2021-09-15 14:00,1.0,,,,342,315,657,,,,,,,
100024661,2021-09-15 15:00,1.0,,,,286,227,513,,,,,,,
100024661,2021-09-15 16:00,1.0,,,,308,188,496,,,,,,,
100024661,2021-09-15 17:00,1.0,,,,425,277,702,,,,,,,
100024661,2021-09-15 18:00,1.0,,,,573,380,953,,,,,,,
100024661,2021-09-15 19:00,1.0,,,,382,301,683,,,,,,,
100024661,2021-09-15 20:00,1.0,,,,173,133,306,,,,,,,
100024661,2021-09-15 21:00,1.0,,,,100,131,231,,,,,,,
100024661,2021-09-15 22:00,1.0,,,,113,102,215,,,,,,,
100024661,2021-09-15 23:00,1.0,,,,80,81,161,,,,,,,
100024661,2021-09-16 00:00,1.0,,,,37,37,74,,,,,,,
100024661,2021-09-16 01:00,1.0,,,,23,15,38,,,,,,,
100024661,2021-09-16 02:00,1.0,,,,11,8,19,,,,,,,
100024661,2021-09-16 03:00,1.0,,,,5,7,12,,,,,,,
100024661,2021-09-16 04:00,1.0,,,,7,14,21,,,,,,,
100024661,2021-09-16 05:00,1.0,,,,28,31,59,,,,,,,
100024661,2021-09-16 06:00,1.0,,,,51,72,123,,,,,,,
100024661,2021-09-16 07:00,1.0,,,,175,287,462,,,,,,,
100024661,2021-09-16 08:00,1.0,,,,359,617,976,,,,,,,
100024661,2021-09-16 09:00,1.0,,,,362,497,859,,,,,,,
100024661,2021-09-16 10:00,1.0,,,,240,278,518,,,,,,,
100024661,2021-09-16 11:00,1.0,,,,234,247,481,,,,,,,
100024661,2021-09-16 12:00,1.0,,,,244,264,508,,,,,,,
100024661,2021-09-16 13:00,1.0,,,,294,284,578,,,,,,,
100024661,2021-09-16 14:00,1.0,,,,344,300,644,,,,,,,
100024661,2021-09-16 15:00,1.0,,,,393,349,742,,,,,,,
100024661,2021-09-16 16:00,1.0,,,,427,346,773,,,,,,,
100024661,2021-09-16 17:00,1.0,,,,569,440,1009,,,,,,,
100024661,2021-09-16 18:00,1.0,,,,683,525,1208,,,,,,,
100024661,2021-09-16 19:00,1.0,,,,468,471,939,,,,,,,
100024661,2021-09-16 20:00,1.0,,,,285,286,571,,,,,,,
100024661,2021-09-16 21:00,1.0,,,,194,198,392,,,,,,,
100024661,2021-09-16 22:00,1.0,,,,203,191,394,,,,,,,
100024661,2021-09-16 23:00,1.0,,,,135,124,259,,,,,,,
100024661,2021-09-17 00:00,1.0,,,,66,94,160,,,,,,,
100024661,2021-09-17 01:00,1.0,,,,39,37,76,,,,,,,
100024661,2021-09-17 02:00,1.0,,,,22,14,36,,,,,,,
100024661,2021-09-17 03:00,1.0,,,,16,9,25,,,,,,,
100024661,2021-09-17 04:00,1.0,,,,17,17,34,,,,,,,
100024661,2021-09-17 05:00,1.0,,,,22,24,46,,,,,,,
100024661,2021-09-17 06:00,1.0,,,,60,70,130,,,,,,,
100024661,2021-09-17 07:00,1.0,,,,165,237,402,,,,,,,
100024661,2021-09-17 08:00,1.0,,,,292,474,766,,,,,,,
100024661,2021-09-17 09:00,1.0,,,,289,360,649,,,,,,,
100024661,2021-09-17 10:00,1.0,,,,210,232,442,,,,,,,
100024661,2021-09-17 11:00,1.0,,,,224,210,434,,,,,,,
100024661,2021-09-17 12:00,1.0,,,,247,236,483,,,,,,,
100024661,2021-09-17 13:00,1.0,,,,281,272,553,,,,,,,
100024661,2021-09-17 14:00,1.0,,,,310,278,588,,,,,,,
100024661,2021-09-17 15:00,1.0,,,,362,325,687,,,,,,,
100024661,2021-09-17 16:00,1.0,,,,371,335,706,,,,,,,
100024661,2021-09-17 17:00,1.0,,,,407,383,790,,,,,,,
100024661,2021-09-17 18:00,1.0,,,,448,404,852,,,,,,,
100024661,2021-09-17 19:00,1.0,,,,354,334,688,,,,,,,
100024661,2021-09-17 20:00,1.0,,,,239,226,465,,,,,,,
100024661,2021-09-17 21:00,1.0,,,,165,164,329,,,,,,,
100024661,2021-09-17 22:00,1.0,,,,139,163,302,,,,,,,
100024661,2021-09-17 23:00,1.0,,,,118,139,257,,,,,,,
100024661,2021-09-18 00:00,1.0,,,,87,95,182,,,,,,,
100024661,2021-09-18 01:00,1.0,,,,67,79,146,,,,,,,
100024661,2021-09-18 02:00,1.0,,,,51,50,101,,,,,,,
100024661,2021-09-18 03:00,1.0,,,,18,22,40,,,,,,,
100024661,2021-09-18 04:00,1.0,,,,20,21,41,,,,,,,
100024661,2021-09-18 05:00,1.0,,,,19,12,31,,,,,,,
100024661,2021-09-18 06:00,1.0,,,,29,24,53,,,,,,,
100024661,2021-09-18 07:00,1.0,,,,32,29,61,,,,,,,
100024661,2021-09-18 08:00,1.0,,,,71,63,134,,,,,,,
100024661,2021-09-18 09:00,1.0,,,,94,100,194,,,,,,,
100024661,2021-09-18 10:00,1.0,,,,138,132,270,,,,,,,
100024661,2021-09-18 11:00,1.0,,,,194,133,327,,,,,,,
100024661,2021-09-18 12:00,1.0,,,,201,211,412,,,,,,,
100024661,2021-09-18 13:00,1.0,,,,225,183,408,,,,,,,
100024661,2021-09-18 14:00,1.0,,,,258,251,509,,,,,,,
100024661,2021-09-18 15:00,1.0,,,,272,273,545,,,,,,,
100024661,2021-09-18 16:00,1.0,,,,249,234,483,,,,,,,
100024661,2021-09-18 17:00,1.0,,,,247,262,509,,,,,,,
100024661,2021-09-18 18:00,1.0,,,,239,272,511,,,,,,,
100024661,2021-09-18 19:00,1.0,,,,234,250,484,,,,,,,
100024661,2021-09-18 20:00,1.0,,,,138,216,354,,,,,,,
100024661,2021-09-18 21:00,1.0,,,,96,155,251,,,,,,,
100024661,2021-09-18 22:00,1.0,,,,91,142,233,,,,,,,
100024661,2021-09-18 23:00,1.0,,,,106,121,227,,,,,,,
100024661,2021-09-19 00:00,1.0,,,,73,87,160,,,,,,,
100024661,2021-09-19 01:00,1.0,,,,63,62,125,,,,,,,
100024661,2021-09-19 02:00,1.0,,,,43,37,80,,,,,,,
100024661,2021-09-19 03:00,1.0,,,,36,18,54,,,,,,,
100024661,2021-09-19 04:00,1.0,,,,28,17,45,,,,,,,
100024661,2021-09-19 05:00,1.0,,,,17,18,35,,,,,,,
100024661,2021-09-19 06:00,1.0,,,,20,22,42,,,,,,,
100024661,2021-09-19 07:00,1.0,,,,30,26,56,,,,,,,
100024661,2021-09-19 08:00,1.0,,,,48,42,90,,,,,,,
100024661,2021-09-19 09:00,1.0,,,,68,79,147,,,,,,,
100024661,2021-09-19 10:00,1.0,,,,122,101,223,,,,,,,
100024661,2021-09-19 11:00,1.0,,,,132,116,248,,,,,,,
100024661,2021-09-19 12:00,1.0,,,,188,135,323,,,,,,,
100024661,2021-09-19 13:00,1.0,,,,208,181,389,,,,,,,
100024661,2021-09-19 14:00,1.0,,,,226,205,431,,,,,,,